Terug naar catalogus

COSMOS 1275 DEB

ActiefPO
NORAD 12674·DEBRIS·🇷🇺 Russia

Gelanceerd Jun 4, 1981 vanaf Plesetsk Cosmodrome

Loading…

Volgende Passages (komende 24 uur)

TLE

VersSource: Space-Track

Epoch: Sep 14, 2026, 10:11 UTC

1 12674U 81053AE  26257.42472583  .00000437  00000-0  42292-3 0  9990
2 12674  82.9344 300.1247 0101762  94.1608 280.7259 13.75212014252091

Volg COSMOS 1275 DEB in realtime met AllMySat

Download on the App Store